Weather History for Fulton, NY

Change the Weather History Date:

Monday, October 28, 2013

  Actual Average (KSYR) Record (KSYR)
Temperature  
Mean Temperature 40 °F 47 °F  
Max Temperature 50 °F 56 °F 79 °F (1927)
Min Temperature 32 °F 38 °F 22 °F (1940)
Degree Days  
Heating Degree Days 25 18  
Month to date heating degree days 395  
Since 1 July heating degree days 562  
Cooling Degree Days 0 0  
Month to date cooling degree days 0  
Year to date cooling degree days 565  
Moisture  
Dew Point 30 °F    
Average Humidity 63    
Maximum Humidity 73    
Minimum Humidity 44    
Precipitation  
Precipitation 0.00 in 0.11 in 1.60 in (1981)
Month to date precipitation 3.11  
Year to date precipitation 31.39  
Snow  
Snow 0.00 in 0.10 in 1.80 in (1965)
Month to date snowfall 0.3  
Since 1 July snowfall 0.3  
Since 1 September snowfall 0.3  
Snow Depth -    
Sea Level Pressure  
Sea Level Pressure 30.21 in    
Wind  
Wind Speed 8 mph (WNW)    
Max Wind Speed 18 mph    
Max Gust Speed 28 mph    
Visibility 10 miles    
Events      
T = Trace of Precipitation, MM = Missing Value Source: NWS Daily Summary

Daily Weather History Graph

Daily Weather History Graph

Search for Another Location

Airport:

Trip Planner

Search our weather history database for the weather conditions in past years. The results will help you decide how hot, cold, wet, or windy it might be!

Date:

Astronomy

Oct. 28, 2013 Rise Set
Actual Time 7:35 AM EDT 6:02 PM EDT
Civil Twilight 7:06 AM EDT 6:31 PM EDT
Nautical Twilight 6:32 AM EDT 7:05 PM EDT
Astronomical Twilight 5:59 AM EDT 7:38 PM EDT
Moon 1:16 AM EDT (10/28) 2:52 PM EDT (10/28)
Length of Visible Light 11h 25m
Length of Day
10h 26m
Waning Crescent, 34% of the Moon is Illuminated
Oct 28
Waning Crescent
Nov 3
New
Nov 10
First Quarter
Nov 17
Full
Nov 25
Last Quarter

Hourly Weather History & Observations

Time (EDT) Temp. Windchill Dew Point Humidity Pressure Visibility Wind Dir Wind Speed Gust Speed Precip Events Conditions
12:54 AM 39.9 °F 35.8 °F 30.9 °F 70% 30.06 in 10.0 mi SSW 5.8 mph - N/A   Mostly Cloudy
1:54 AM 41.0 °F 37.1 °F 33.1 °F 73% 30.06 in 10.0 mi SSW 5.8 mph - N/A   Overcast
2:54 AM 41.0 °F 37.1 °F 33.1 °F 73% 30.05 in 10.0 mi South 5.8 mph - N/A   Overcast
3:54 AM 42.1 °F 38.4 °F 34.0 °F 73% 30.04 in 10.0 mi South 5.8 mph - N/A   Overcast
4:54 AM 43.0 °F 38.8 °F 34.0 °F 71% 30.04 in 10.0 mi South 6.9 mph - N/A   Overcast
5:54 AM 43.0 °F 38.2 °F 34.0 °F 71% 30.05 in 10.0 mi SSW 8.1 mph - N/A   Overcast
6:54 AM 43.0 °F 38.2 °F 33.1 °F 68% 30.07 in 10.0 mi SW 8.1 mph - N/A   Mostly Cloudy
7:54 AM 45.0 °F 40.1 °F 34.0 °F 65% 30.09 in 10.0 mi WSW 9.2 mph - N/A   Overcast
8:15 AM 44.6 °F 40.2 °F 33.8 °F 66% 30.10 in 10.0 mi SW 8.1 mph - N/A   Overcast
8:23 AM 44.6 °F 40.7 °F 35.6 °F 71% 30.10 in 10.0 mi WSW 6.9 mph - N/A   Overcast
8:54 AM 46.0 °F 41.9 °F 36.0 °F 68% 30.13 in 10.0 mi WSW 8.1 mph - N/A   Overcast
9:54 AM 48.9 °F - 37.9 °F 66% 30.16 in 10.0 mi NW 13.8 mph 21.9 mph N/A   Overcast
10:10 AM 48.2 °F - 37.4 °F 66% 30.16 in 10.0 mi NW 16.1 mph 27.6 mph N/A   Overcast
10:30 AM 48.2 °F - 35.6 °F 62% 30.17 in 10.0 mi NNW 18.4 mph 24.2 mph N/A   Overcast
10:54 AM 48.0 °F - 36.0 °F 63% 30.20 in 10.0 mi NW 16.1 mph 24.2 mph N/A   Overcast
11:54 AM 48.9 °F - 35.1 °F 59% 30.23 in 10.0 mi NW 16.1 mph 23.0 mph N/A   Mostly Cloudy
12:54 PM 46.9 °F - 33.1 °F 59% 30.25 in 10.0 mi North 10.4 mph 20.7 mph N/A   Scattered Clouds
1:54 PM 48.9 °F - 28.0 °F 44% 30.26 in 10.0 mi NW 11.5 mph 20.7 mph N/A   Scattered Clouds
2:54 PM 46.0 °F 40.6 °F 30.0 °F 54% 30.28 in 10.0 mi NNW 11.5 mph 20.7 mph N/A   Mostly Cloudy
3:54 PM 46.0 °F 40.6 °F 27.0 °F 47% 30.30 in 10.0 mi NNW 11.5 mph 18.4 mph N/A   Clear
4:54 PM 44.1 °F 38.1 °F 27.0 °F 51% 30.32 in 10.0 mi North 11.5 mph - N/A   Scattered Clouds
5:54 PM 39.9 °F 35.1 °F 25.0 °F 55% 30.34 in 10.0 mi North 6.9 mph - N/A   Clear
6:54 PM 36.0 °F - 25.0 °F 64% 30.35 in 10.0 mi Calm Calm - N/A   Clear
7:54 PM 32.0 °F - 23.0 °F 69% 30.37 in 10.0 mi Calm Calm - N/A   Clear
8:54 PM 35.1 °F 31.0 °F 19.9 °F 54% 30.38 in 10.0 mi NE 4.6 mph - N/A   Clear
9:54 PM 35.1 °F 31.0 °F 19.9 °F 54% 30.40 in 10.0 mi NE 4.6 mph - N/A   Clear
10:54 PM 34.0 °F 26.6 °F 21.0 °F 59% 30.41 in 10.0 mi NE 9.2 mph - N/A   Clear
11:54 PM 33.1 °F 26.1 °F 21.0 °F 61% 30.42 in 10.0 mi NE 8.1 mph - N/A   Clear